WGN618 MMSD-KSJC

Flight info

Callsign WGN618
Flight time N/A
Altitude 32000
Route ANEGO1A ANEGO UL312 SQN DCT ZONKY DCT EIREE DCT IKAYE DCT SCTRR DCT TROXX SILCN6
Aircraft MD1F/H-SDE1E2E3FGHIJ2J3J4J5M1RWXY/LB1D1

Departure

Time N/A
Airport Los Cabos International Airport (MMSD)

Arrival

Time 2026-05-03 21:14
Airport Norman Y. Mineta San Jose International Airport (KSJC)
Time Latitude Longitude Altitude Speed Heading
2026-05-03 20:15 31.58039 -116.64410 31956 ft 450 kts 319°
2026-05-03 20:15 31.63493 -116.68108 31955 ft 450 kts 317°
2026-05-03 20:16 31.68987 -116.71806 31961 ft 450 kts 317°
2026-05-03 20:16 31.74497 -116.75520 31950 ft 446 kts 317°
2026-05-03 20:17 31.79969 -116.79226 31947 ft 446 kts 317°
2026-05-03 20:17 31.85478 -116.82909 31956 ft 447 kts 318°
2026-05-03 20:18 31.91023 -116.86649 31944 ft 445 kts 316°
2026-05-03 20:18 31.96491 -116.90340 31941 ft 443 kts 319°
2026-05-03 20:19 32.01978 -116.94048 31952 ft 446 kts 318°
2026-05-03 20:19 32.07522 -116.97807 31951 ft 446 kts 316°
2026-05-03 20:20 32.13264 -117.01764 31950 ft 448 kts 318°
2026-05-03 20:20 32.19164 -117.05784 31958 ft 447 kts 317°
2026-05-03 20:21 32.25122 -117.09871 31964 ft 447 kts 318°
2026-05-03 20:21 32.31035 -117.13922 31967 ft 447 kts 317°
2026-05-03 20:22 32.37037 -117.18034 31973 ft 450 kts 318°
2026-05-03 20:22 32.43048 -117.22134 31973 ft 448 kts 317°
2026-05-03 20:23 32.49154 -117.26330 31966 ft 449 kts 317°
2026-05-03 20:23 32.55138 -117.30727 31994 ft 443 kts 314°
2026-05-03 20:24 32.60835 -117.35499 31975 ft 439 kts 312°
2026-05-03 20:24 32.66484 -117.40392 31994 ft 441 kts 312°
2026-05-03 20:25 32.72244 -117.45331 31982 ft 440 kts 312°
2026-05-03 20:25 32.77856 -117.50159 31969 ft 441 kts 313°
2026-05-03 20:26 32.83334 -117.54846 31965 ft 440 kts 312°
2026-05-03 20:26 32.88705 -117.59454 31971 ft 441 kts 312°
2026-05-03 20:27 32.94076 -117.64086 31973 ft 444 kts 313°
2026-05-03 20:27 32.99509 -117.68729 31981 ft 443 kts 312°
2026-05-03 20:28 33.05003 -117.73453 31963 ft 441 kts 312°
2026-05-03 20:28 33.10440 -117.78104 31953 ft 441 kts 312°
2026-05-03 20:29 33.16107 -117.82971 31955 ft 443 kts 313°
2026-05-03 20:29 33.21757 -117.88027 31947 ft 437 kts 308°
2026-05-03 20:30 33.26868 -117.93592 31952 ft 429 kts 304°
2026-05-03 20:30 33.31665 -117.99419 31946 ft 427 kts 303°
2026-05-03 20:31 33.36479 -118.05351 31941 ft 427 kts 303°
2026-05-03 20:31 33.41285 -118.11223 31943 ft 428 kts 303°
2026-05-03 20:32 33.46128 -118.17166 31941 ft 429 kts 303°
2026-05-03 20:32 33.50979 -118.23104 31934 ft 427 kts 303°
2026-05-03 20:33 33.55810 -118.29020 31935 ft 427 kts 303°
2026-05-03 20:33 33.60723 -118.35021 31938 ft 427 kts 303°
2026-05-03 20:34 33.65579 -118.40962 31946 ft 428 kts 304°
2026-05-03 20:34 33.70455 -118.46917 31946 ft 428 kts 303°
2026-05-03 20:35 33.75353 -118.52893 31937 ft 429 kts 303°
2026-05-03 20:35 33.80283 -118.58911 31944 ft 427 kts 303°
2026-05-03 20:36 33.85162 -118.64861 31951 ft 428 kts 303°
2026-05-03 20:36 33.89976 -118.70824 31967 ft 428 kts 302°
2026-05-03 20:37 33.94822 -118.76863 31967 ft 428 kts 302°
2026-05-03 20:37 33.99692 -118.82909 31969 ft 428 kts 303°
2026-05-03 20:38 34.04531 -118.88915 31955 ft 428 kts 302°
2026-05-03 20:38 34.09391 -118.94947 31950 ft 427 kts 302°
2026-05-03 20:39 34.14270 -119.00879 31941 ft 430 kts 305°
2026-05-03 20:39 34.19374 -119.06683 31943 ft 432 kts 305°
2026-05-03 20:40 34.24479 -119.12420 31938 ft 432 kts 305°
2026-05-03 20:40 34.29590 -119.18165 31937 ft 431 kts 305°
2026-05-03 20:41 34.34721 -119.23954 31944 ft 432 kts 305°
2026-05-03 20:41 34.39864 -119.29739 31929 ft 431 kts 305°
2026-05-03 20:42 34.44993 -119.35514 31936 ft 430 kts 305°
2026-05-03 20:42 34.50102 -119.41258 31927 ft 432 kts 305°
2026-05-03 20:43 34.55262 -119.47057 31934 ft 433 kts 306°
2026-05-03 20:43 34.60413 -119.52830 31925 ft 431 kts 305°
2026-05-03 20:44 34.65540 -119.58590 31920 ft 432 kts 305°
2026-05-03 20:44 34.70672 -119.64338 31915 ft 430 kts 305°
2026-05-03 20:45 34.75782 -119.70072 31929 ft 430 kts 304°
2026-05-03 20:45 34.80934 -119.75892 31923 ft 429 kts 304°
2026-05-03 20:46 34.86019 -119.81758 31914 ft 428 kts 304°
2026-05-03 20:46 34.91088 -119.87598 31922 ft 428 kts 304°
2026-05-03 20:47 34.96184 -119.93459 31904 ft 428 kts 304°
2026-05-03 20:47 35.01218 -119.99239 31910 ft 430 kts 304°
2026-05-03 20:48 35.05786 -120.04496 31910 ft 430 kts 305°
2026-05-03 20:48 35.10787 -120.10227 31923 ft 431 kts 304°
2026-05-03 20:49 35.15885 -120.16075 31916 ft 431 kts 304°
2026-05-03 20:49 35.20947 -120.21888 31926 ft 431 kts 305°
2026-05-03 20:50 35.26000 -120.27667 31918 ft 433 kts 304°
2026-05-03 20:50 35.31085 -120.33499 31917 ft 433 kts 305°
2026-05-03 20:51 35.36193 -120.39348 31914 ft 433 kts 305°
2026-05-03 20:51 35.41302 -120.45209 31924 ft 432 kts 305°
2026-05-03 20:52 35.46316 -120.51069 31927 ft 434 kts 305°
2026-05-03 20:52 35.51590 -120.56834 31925 ft 443 kts 310°
2026-05-03 20:53 35.57391 -120.61855 31926 ft 454 kts 315°
2026-05-03 20:53 35.63478 -120.66660 31939 ft 454 kts 315°
2026-05-03 20:54 35.69549 -120.71457 31944 ft 454 kts 315°
2026-05-03 20:54 35.78817 -120.78812 31770 ft 457 kts 315°
2026-05-03 20:55 35.81894 -120.81255 31119 ft 458 kts 316°
2026-05-03 20:55 35.85018 -120.83727 30447 ft 456 kts 316°
2026-05-03 20:55 35.88118 -120.86173 29846 ft 454 kts 316°
2026-05-03 20:55 35.91207 -120.88621 29236 ft 458 kts 317°
2026-05-03 20:56 35.94399 -120.91144 28583 ft 464 kts 319°
2026-05-03 20:56 35.97530 -120.93632 27946 ft 468 kts 318°
2026-05-03 20:56 36.00555 -120.96158 27283 ft 472 kts 318°
2026-05-03 20:56 36.03358 -120.98616 26740 ft 474 kts 317°
2026-05-03 20:57 36.06198 -121.01243 26173 ft 477 kts 317°
2026-05-03 20:57 36.09038 -121.03960 25570 ft 481 kts 317°
2026-05-03 20:57 36.12080 -121.06876 24908 ft 487 kts 318°
2026-05-03 20:57 36.15101 -121.09748 24254 ft 491 kts 319°
2026-05-03 20:58 36.18003 -121.12508 23622 ft 490 kts 320°
2026-05-03 20:58 36.20731 -121.15121 22986 ft 485 kts 319°
2026-05-03 20:58 36.23445 -121.17710 22410 ft 480 kts 320°
2026-05-03 20:58 36.26122 -121.20262 21834 ft 475 kts 321°
2026-05-03 20:59 36.28731 -121.22747 21286 ft 472 kts 320°
2026-05-03 20:59 36.31337 -121.25245 20724 ft 469 kts 320°
2026-05-03 20:59 36.33924 -121.27709 20190 ft 464 kts 321°
2026-05-03 20:59 36.36448 -121.30107 19850 ft 452 kts 320°
2026-05-03 21:00 36.38916 -121.32493 19175 ft 450 kts 320°
2026-05-03 21:00 36.40593 -121.34132 18717 ft 449 kts 320°
2026-05-03 21:00 36.43938 -121.37360 17769 ft 446 kts 321°
2026-05-03 21:00 36.46433 -121.39751 17657 ft 429 kts 321°
2026-05-03 21:01 36.48884 -121.41973 17438 ft 411 kts 328°
2026-05-03 21:01 36.51446 -121.43700 17212 ft 398 kts 336°
2026-05-03 21:01 36.54040 -121.44936 16597 ft 391 kts 342°
2026-05-03 21:01 36.56669 -121.45976 16032 ft 381 kts 343°
2026-05-03 21:02 36.59177 -121.46978 15572 ft 374 kts 342°
2026-05-03 21:02 36.61663 -121.48005 15068 ft 367 kts 342°
2026-05-03 21:02 36.64062 -121.49014 14619 ft 361 kts 341°
2026-05-03 21:02 36.66469 -121.50040 14165 ft 360 kts 341°
2026-05-03 21:03 36.68879 -121.51073 13658 ft 361 kts 341°
2026-05-03 21:03 36.71269 -121.52097 13149 ft 360 kts 341°
2026-05-03 21:03 36.73669 -121.53120 12726 ft 359 kts 341°
2026-05-03 21:03 36.76102 -121.54151 12158 ft 359 kts 341°
2026-05-03 21:04 36.78495 -121.55170 11588 ft 357 kts 341°
2026-05-03 21:04 36.80910 -121.56203 11032 ft 353 kts 341°
2026-05-03 21:04 36.83286 -121.57216 10478 ft 350 kts 342°
2026-05-03 21:04 36.85655 -121.58223 9921 ft 346 kts 341°
2026-05-03 21:05 36.88008 -121.59222 9531 ft 333 kts 342°
2026-05-03 21:05 36.90219 -121.60166 9494 ft 314 kts 341°
2026-05-03 21:05 36.92264 -121.61036 9477 ft 303 kts 342°
2026-05-03 21:05 36.94360 -121.61926 9109 ft 301 kts 342°
2026-05-03 21:06 36.96384 -121.62783 8557 ft 297 kts 342°
2026-05-03 21:06 36.98368 -121.63625 8019 ft 293 kts 341°
2026-05-03 21:06 37.00330 -121.64460 7549 ft 285 kts 341°
2026-05-03 21:06 37.02269 -121.65286 7105 ft 276 kts 341°
2026-05-03 21:07 37.04165 -121.66091 6668 ft 263 kts 341°
2026-05-03 21:07 37.05913 -121.66832 6215 ft 255 kts 341°
2026-05-03 21:07 37.07596 -121.67546 5876 ft 248 kts 341°
2026-05-03 21:07 37.09231 -121.68244 5542 ft 239 kts 341°
2026-05-03 21:08 37.10829 -121.68927 5240 ft 228 kts 341°
2026-05-03 21:08 37.12353 -121.69576 5003 ft 219 kts 341°
2026-05-03 21:08 37.13814 -121.70195 4816 ft 216 kts 340°
2026-05-03 21:08 37.15265 -121.70814 4599 ft 216 kts 340°
2026-05-03 21:09 37.16633 -121.71609 4409 ft 215 kts 326°
2026-05-03 21:09 37.17888 -121.72720 4100 ft 217 kts 318°
2026-05-03 21:09 37.19033 -121.73992 3775 ft 208 kts 316°
2026-05-03 21:09 37.20067 -121.75202 3581 ft 189 kts 315°
2026-05-03 21:10 37.20983 -121.76265 3669 ft 174 kts 316°
2026-05-03 21:10 37.21913 -121.77292 3578 ft 185 kts 317°
2026-05-03 21:10 37.22860 -121.78322 3272 ft 178 kts 317°
2026-05-03 21:10 37.23783 -121.79314 3085 ft 174 kts 317°
2026-05-03 21:11 37.24681 -121.80283 2866 ft 176 kts 317°
2026-05-03 21:11 37.25563 -121.81244 2629 ft 174 kts 317°
2026-05-03 21:11 37.26457 -121.82219 2422 ft 174 kts 316°
2026-05-03 21:11 37.27324 -121.83167 2196 ft 171 kts 316°
2026-05-03 21:12 37.28182 -121.84108 1993 ft 170 kts 316°
2026-05-03 21:12 37.29036 -121.85045 1767 ft 170 kts 315°
2026-05-03 21:12 37.29868 -121.85960 1559 ft 168 kts 316°
2026-05-03 21:12 37.30738 -121.86916 1341 ft 167 kts 316°
2026-05-03 21:13 37.31663 -121.87933 1100 ft 168 kts 316°
2026-05-03 21:13 37.32584 -121.88947 870 ft 166 kts 316°
2026-05-03 21:13 37.33522 -121.89979 641 ft 167 kts 316°
2026-05-03 21:13 37.34450 -121.90994 401 ft 166 kts 317°
2026-05-03 21:14 37.35372 -121.92005 159 ft 166 kts 317°
2026-05-03 21:14 37.36271 -121.92999 60 ft 135 kts 317°
2026-05-03 21:14 37.36785 -121.93561 53 ft 53 kts 319°
2026-05-03 21:14 37.36989 -121.93783 52 ft 24 kts 320°
2026-05-03 21:15 37.37159 -121.93781 51 ft 26 kts 41°
2026-05-03 21:15 37.37279 -121.93617 48 ft 19 kts 50°
2026-05-03 21:15 37.37257 -121.93493 47 ft 16 kts 137°
2026-05-03 21:15 37.37161 -121.93389 46 ft 18 kts 140°
2026-05-03 21:16 37.37056 -121.93277 47 ft 19 kts 137°
2026-05-03 21:16 37.36943 -121.93175 50 ft 19 kts 160°
2026-05-03 21:16 37.36811 -121.93104 52 ft 20 kts 143°
2026-05-03 21:16 37.36704 -121.92987 54 ft 20 kts 139°
2026-05-03 21:17 37.36593 -121.92866 57 ft 21 kts 139°
2026-05-03 21:17 37.36473 -121.92738 57 ft 22 kts 140°
2026-05-03 21:17 37.36346 -121.92593 58 ft 24 kts 139°
2026-05-03 21:17 37.36208 -121.92443 61 ft 25 kts 139°
2026-05-03 21:18 37.36067 -121.92291 63 ft 27 kts 139°
2026-05-03 21:18 37.35910 -121.92117 64 ft 29 kts 138°
2026-05-03 21:18 37.35748 -121.91939 67 ft 30 kts 139°
2026-05-03 21:18 37.35580 -121.91756 70 ft 25 kts 139°
2026-05-03 21:19 37.35482 -121.91645 72 ft 14 kts 126°
2026-05-03 21:19 37.35538 -121.91620 70 ft 13 kts 328°
2026-05-03 21:19 37.35607 -121.91648 69 ft 11 kts
2026-05-03 21:19 37.35666 -121.91641 69 ft 0 kts